This is the latest recevied weather packets stored in our database for station/object K8JCL-13. If no packets are shown the sender has not sent any weather packets the latest 10 day(s).
| Time | Temp. | Humidity | Pressure | Rain* | Wind** | Luminosity | Snow |
|---|---|---|---|---|---|---|---|
| 1777490957 | 16.67° C | 82% | 1010.3 hPa | 0 mm | - | 597 W/m² | - |
| 1777490652 | 16.11° C | 85% | 1010.5 hPa | 0 mm | - | 202 W/m² | - |
| 1777490349 | 15.56° C | 83% | 1010.4 hPa | 0 mm | - | 169 W/m² | - |
| 1777490047 | 15.56° C | 84% | 1010.5 hPa | 0 mm | - | 106 W/m² | - |
| 1777489744 | 15.56° C | 83% | 1010.4 hPa | 0 mm | - | 138 W/m² | - |
| 1777489441 | 16.11° C | 83% | 1010.5 hPa | 0 mm | - | 136 W/m² | - |
| 1777489137 | 15.56° C | 82% | 1010.1 hPa | 0 mm | - | 147 W/m² | - |
| 1777488835 | 16.11° C | 82% | 1010.3 hPa | 0 mm | - | 172 W/m² | - |
| 1777488532 | 16.11° C | 84% | 1010.3 hPa | 0 mm | - | 266 W/m² | - |
| 1777488229 | 16.67° C | 86% | 1010.3 hPa | 0 mm | - | 656 W/m² | - |
| 1777487927 | 16.11° C | 87% | 1010.2 hPa | 0 mm | - | 831 W/m² | - |
| 1777487625 | 15.56° C | 88% | 1010.3 hPa | 0 mm | - | 346 W/m² | - |
| 1777487322 | 15° C | 91% | 1010.3 hPa | 0 mm | - | 597 W/m² | - |
| 1777487019 | 15° C | 92% | 1010.4 hPa | 0 mm | - | 252 W/m² | - |
| 1777486715 | 15° C | 95% | 1010.4 hPa | 0 mm | - | 154 W/m² | - |
| 1777486414 | 14.44° C | 96% | 1010.4 hPa | 0 mm | - | 291 W/m² | - |
| 1777486111 | 13.89° C | 98% | 1010.2 hPa | 0 mm | - | 231 W/m² | - |
| 1777485807 | 13.33° C | 99% | 1010.2 hPa | 0 mm | - | 146 W/m² | - |
| 1777485503 | 13.33° C | 99% | 1010.3 hPa | 0 mm | - | 64 W/m² | - |
| 1777485199 | 13.33° C | 99% | 1010.4 hPa | 0 mm | - | 215 W/m² | - |
| 1777484896 | 13.33° C | 99% | 1010.3 hPa | 0 mm | - | 230 W/m² | - |
| 1777484593 | 13.33° C | 99% | 1010.5 hPa | 0 mm | - | 204 W/m² | - |
| 1777484290 | 13.33° C | 99% | 1010.3 hPa | 0 mm | - | 146 W/m² | - |
| 1777483985 | 13.33° C | 99% | 1010.3 hPa | 0 mm | - | 122 W/m² | - |
| 1777483682 | 13.33° C | 99% | 1010.3 hPa | 0 mm | - | 158 W/m² | - |
* Rain latest hour (hover to see other rain measurements)
** Current wind speed in m/s (hover to see current wind gust speed)